| time (UTC) | temp F | wind direction | speed MPH | gust MPH | rain 1hr in | rain 24hr in | rain mn in | humidity % | barometer mb |
| 20260901193638 | 59 | 247 | 7.0 | 16.0 | 0.00 | 0.00 | 0.09 | 75 | 1010.1 |
| 20260901193133 | 59 | 265 | 9.0 | 16.0 | 0.00 | 0.00 | 0.09 | 75 | 1010.1 |
| 20260901192628 | 59 | 270 | 8.0 | 15.0 | 0.00 | 0.00 | 0.09 | 75 | 1010.1 |
| 20260901192123 | 59 | 270 | 4.0 | 6.0 | 0.00 | 0.00 | 0.09 | 75 | 1010.0 |
| 20260901191618 | 59 | 261 | 2.0 | 10.0 | 0.00 | 0.00 | 0.09 | 75 | 1010.1 |
| 20260901191112 | 59 | 229 | 7.0 | 13.0 | 0.00 | 0.00 | 0.09 | 75 | 1010.1 |
| 20260901190607 | 59 | 256 | 12.0 | 12.0 | 0.00 | 0.00 | 0.09 | 75 | 1010.1 |
| 20260901185557 | 59 | 315 | 4.0 | 9.0 | 0.00 | 0.00 | 0.09 | 75 | 1010.0 |
| 20260901185052 | 59 | 238 | 6.0 | 10.0 | 0.00 | 0.00 | 0.09 | 75 | 1010.0 |
| 20260901184547 | 59 | 229 | 9.0 | 12.0 | 0.00 | 0.00 | 0.09 | 74 | 1009.9 |
| 20260901184041 | 59 | 234 | 5.0 | 8.0 | 0.00 | 0.00 | 0.09 | 74 | 1010.0 |
| 20260901183536 | 59 | 243 | 10.0 | 11.0 | 0.00 | 0.00 | 0.09 | 73 | 1010.0 |
| 20260901183031 | 59 | 225 | 4.0 | 9.0 | 0.00 | 0.00 | 0.09 | 74 | 1010.0 |
| 20260901182526 | 59 | 261 | 6.0 | 13.0 | 0.00 | 0.00 | 0.09 | 74 | 1010.0 |
| 20260901182021 | 59 | 270 | 8.0 | 14.0 | 0.00 | 0.00 | 0.09 | 73 | 1009.8 |
| 20260901181515 | 59 | 252 | 8.0 | 16.0 | 0.00 | 0.00 | 0.09 | 73 | 1009.8 |
| 20260901181010 | 59 | 234 | 10.0 | 11.0 | 0.00 | 0.00 | 0.09 | 73 | 1009.8 |
| 20260901180505 | 59 | 265 | 9.0 | 13.0 | 0.00 | 0.00 | 0.09 | 72 | 1009.8 |
| 20260901180000 | 59 | 270 | 8.0 | 8.0 | 0.00 | 0.00 | 0.09 | 72 | 1009.7 |
| 20260901175455 | 59 | 265 | 6.0 | 7.0 | 0.00 | 0.00 | 0.09 | 71 | 1009.7 |
| 20260901174949 | 59 | 256 | 6.0 | 9.0 | 0.00 | 0.00 | 0.09 | 71 | 1009.6 |
| 20260901174444 | 59 | 315 | 8.0 | 10.0 | 0.00 | 0.00 | 0.09 | 70 | 1009.7 |
| 20260901173939 | 60 | 252 | 11.0 | 11.0 | 0.00 | 0.00 | 0.09 | 70 | 1009.7 |
| 20260901173434 | 60 | 234 | 9.0 | 17.0 | 0.00 | 0.00 | 0.09 | 70 | 1009.7 |
| 20260901172929 | 60 | 270 | 9.0 | 19.0 | 0.00 | 0.00 | 0.09 | 69 | 1009.6 |
| 20260901172423 | 60 | 265 | 9.0 | 15.0 | 0.00 | 0.00 | 0.09 | 69 | 1009.6 |
| 20260901171918 | 60 | 270 | 7.0 | 15.0 | 0.00 | 0.00 | 0.09 | 69 | 1009.6 |
| 20260901171413 | 60 | 234 | 10.0 | 11.0 | 0.00 | 0.00 | 0.09 | 68 | 1009.6 |
| 20260901170908 | 60 | 234 | 6.0 | 10.0 | 0.00 | 0.00 | 0.09 | 68 | 1009.5 |
| 20260901170403 | 60 | 234 | 9.0 | 11.0 | 0.00 | 0.00 | 0.09 | 67 | 1009.6 |
| 20260901165857 | 60 | 229 | 11.0 | 11.0 | 0.00 | 0.00 | 0.09 | 67 | 1009.5 |
| 20260901165352 | 60 | 252 | 13.0 | 13.0 | 0.00 | 0.00 | 0.09 | 66 | 1009.5 |
| 20260901164847 | 61 | 265 | 9.0 | 12.0 | 0.00 | 0.00 | 0.09 | 65 | 1009.4 |
| 20260901164342 | 61 | 256 | 10.0 | 13.0 | 0.00 | 0.00 | 0.03 | 64 | 1009.4 |
| 20260901163837 | 62 | 252 | 9.0 | 14.0 | 0.00 | 0.00 | 0.03 | 64 | 1009.3 |
| 20260901163331 | 62 | 270 | 7.0 | 11.0 | 0.00 | 0.00 | 0.03 | 63 | 1009.3 |
| 20260901162826 | 63 | 274 | 12.0 | 14.0 | 0.00 | 0.00 | 0.03 | 63 | 1009.3 |
| 20260901162321 | 63 | 225 | 7.0 | 12.0 | 0.00 | 0.00 | 0.03 | 62 | 1009.4 |
| 20260901161816 | 63 | 297 | 5.0 | 14.0 | 0.00 | 0.00 | 0.03 | 63 | 1009.3 |
| 20260901161311 | 64 | 261 | 9.0 | 19.0 | 0.00 | 0.00 | 0.03 | 62 | 1009.2 |
| 20260901160805 | 64 | 297 | 19.0 | 23.0 | 0.00 | 0.00 | 0.03 | 62 | 1009.1 |
| 20260901160300 | 64 | 261 | 7.0 | 16.0 | 0.00 | 0.00 | 0.03 | 62 | 1009.0 |
| 20260901155755 | 64 | 261 | 7.0 | 15.0 | 0.00 | 0.00 | 0.03 | 60 | 1009.0 |
| 20260901155250 | 65 | 234 | 7.0 | 28.0 | 0.00 | 0.00 | 0.03 | 60 | 1009.0 |
| 20260901154745 | 66 | 270 | 16.0 | 28.0 | 0.00 | 0.00 | 0.03 | 60 | 1008.9 |
| 20260901154239 | 66 | 256 | 7.0 | 11.0 | 0.00 | 0.00 | 0.03 | 60 | 1008.9 |
| 20260901153734 | 66 | 243 | 9.0 | 18.0 | 0.00 | 0.00 | 0.03 | 60 | 1008.9 |
| 20260901153230 | 66 | 274 | 15.0 | 16.0 | 0.00 | 0.00 | 0.03 | 61 | 1008.9 |
| 20260901152724 | 66 | 225 | 13.0 | 13.0 | 0.00 | 0.00 | 0.03 | 61 | 1008.8 |
| 20260901152219 | 67 | 229 | 9.0 | 15.0 | 0.00 | 0.00 | 0.03 | 61 | 1009.0 |
| 20260901151713 | 67 | 297 | 6.0 | 12.0 | 0.00 | 0.00 | 0.03 | 63 | 1008.9 |
| 20260901151208 | 66 | 234 | 8.0 | 13.0 | 0.00 | 0.00 | 0.03 | 63 | 1009.0 |
| 20260901150704 | 65 | 261 | 9.0 | 10.0 | 0.00 | 0.00 | 0.03 | 62 | 1008.9 |
| 20260901150158 | 66 | 288 | 7.0 | 14.0 | 0.00 | 0.00 | 0.03 | 62 | 1008.9 |
| 20260901145653 | 66 | 243 | 11.0 | 11.0 | 0.00 | 0.00 | 0.03 | 63 | 1008.9 |
| 20260901145147 | 66 | 225 | 7.0 | 12.0 | 0.00 | 0.00 | 0.03 | 62 | 1008.9 |
| 20260901144642 | 66 | 225 | 6.0 | 16.0 | 0.00 | 0.00 | 0.03 | 62 | 1008.8 |
| 20260901144138 | 66 | 238 | 10.0 | 14.0 | 0.00 | 0.00 | 0.03 | 63 | 1009.0 |
| 20260901143632 | 65 | 252 | 5.0 | 14.0 | 0.00 | 0.00 | 0.03 | 62 | 1008.9 |
| 20260901143127 | 65 | 261 | 13.0 | 22.0 | 0.00 | 0.00 | 0.03 | 62 | 1008.9 |
| 20260901142622 | 65 | 225 | 14.0 | 14.0 | 0.00 | 0.00 | 0.03 | 64 | 1008.9 |
| 20260901142116 | 66 | 241 | 6.0 | 13.0 | 0.00 | 0.00 | 0.03 | 63 | 1008.8 |
| 20260901141612 | 66 | 225 | 8.0 | 13.0 | 0.00 | 0.00 | 0.03 | 62 | 1008.7 |
| 20260901141106 | 66 | 225 | 12.0 | 17.0 | 0.00 | 0.00 | 0.03 | 63 | 1008.7 |
| 20260901140601 | 66 | 279 | 9.0 | 12.0 | 0.00 | 0.00 | 0.03 | 63 | 1008.8 |
| 20260901140056 | 66 | 270 | 8.0 | 12.0 | 0.00 | 0.00 | 0.03 | 63 | 1008.9 |
| 20260901135550 | 66 | 270 | 10.0 | 13.0 | 0.00 | 0.00 | 0.03 | 64 | 1008.9 |
| 20260901135046 | 66 | 261 | 10.0 | 15.0 | 0.00 | 0.00 | 0.03 | 64 | 1008.9 |
| 20260901134540 | 66 | 256 | 9.0 | 15.0 | 0.00 | 0.00 | 0.03 | 64 | 1008.9 |
| 20260901134035 | 66 | 270 | 11.0 | 23.0 | 0.00 | 0.00 | 0.03 | 64 | 1008.9 |
| 20260901133530 | 66 | 211 | 12.0 | 19.0 | 0.00 | 0.00 | 0.03 | 65 | 1008.9 |
| 20260901133025 | 66 | 225 | 12.0 | 14.0 | 0.00 | 0.00 | 0.03 | 66 | 1008.9 |
| 20260901132520 | 66 | 270 | 8.0 | 16.0 | 0.00 | 0.00 | 0.03 | 67 | 1008.9 |
| 20260901132014 | 65 | 261 | 9.0 | 11.0 | 0.00 | 0.00 | 0.03 | 67 | 1008.9 |
| 20260901131509 | 64 | 256 | 9.0 | 14.0 | 0.00 | 0.00 | 0.03 | 66 | 1008.8 |
| 20260901131004 | 64 | 243 | 11.0 | 14.0 | 0.00 | 0.00 | 0.03 | 66 | 1008.9 |
| 20260901130458 | 64 | 243 | 5.0 | 9.0 | 0.00 | 0.00 | 0.03 | 66 | 1008.9 |
| 20260901125954 | 65 | 225 | 7.0 | 16.0 | 0.00 | 0.00 | 0.03 | 66 | 1008.8 |
| 20260901125448 | 65 | 225 | 10.0 | 16.0 | 0.00 | 0.00 | 0.03 | 65 | 1008.8 |
| 20260901124943 | 65 | 252 | 12.0 | 18.0 | 0.00 | 0.00 | 0.03 | 64 | 1008.7 |
| 20260901124438 | 66 | 229 | 14.0 | 14.0 | 0.00 | 0.00 | 0.03 | 64 | 1008.9 |
| 20260901123933 | 67 | 270 | 16.0 | 16.0 | 0.00 | 0.00 | 0.03 | 63 | 1008.8 |
| 20260901123428 | 68 | 225 | 14.0 | 15.0 | 0.00 | 0.00 | 0.03 | 65 | 1008.8 |
| 20260901122922 | 67 | 256 | 11.0 | 12.0 | 0.00 | 0.00 | 0.03 | 65 | 1008.7 |
| 20260901122417 | 66 | 229 | 13.0 | 15.0 | 0.00 | 0.00 | 0.03 | 66 | 1008.6 |
| 20260901121912 | 66 | 270 | 7.0 | 13.0 | 0.00 | 0.00 | 0.03 | 66 | 1008.7 |
| 20260901121406 | 65 | 265 | 6.0 | 17.0 | 0.00 | 0.00 | 0.03 | 66 | 1008.7 |
| 20260901120902 | 65 | 256 | 7.0 | 14.0 | 0.00 | 0.00 | 0.03 | 65 | 1008.7 |
| 20260901120356 | 66 | 256 | 11.0 | 13.0 | 0.00 | 0.00 | 0.03 | 63 | 1008.7 |
| 20260901115851 | 67 | 256 | 12.0 | 12.0 | 0.00 | 0.00 | 0.03 | 65 | 1008.7 |
| 20260901115346 | 67 | 252 | 6.0 | 15.0 | 0.00 | 0.00 | 0.03 | 65 | 1008.6 |
| 20260901114841 | 68 | 270 | 9.0 | 12.0 | 0.00 | 0.00 | 0.03 | 65 | 1008.7 |
| 20260901114336 | 68 | 225 | 10.0 | 12.0 | 0.00 | 0.00 | 0.03 | 66 | 1008.6 |
| 20260901113830 | 68 | 225 | 7.0 | 7.0 | 0.00 | 0.00 | 0.03 | 67 | 1008.6 |
| 20260901113326 | 67 | 225 | 4.0 | 12.0 | 0.00 | 0.00 | 0.03 | 67 | 1008.7 |
| 20260901112820 | 67 | 270 | 12.0 | 12.0 | 0.00 | 0.00 | 0.03 | 68 | 1008.6 |
| 20260901112315 | 67 | 225 | 10.0 | 16.0 | 0.00 | 0.00 | 0.03 | 68 | 1008.6 |
| 20260901111810 | 67 | 243 | 7.0 | 8.0 | 0.00 | 0.00 | 0.03 | 69 | 1008.5 |
| 20260901111304 | 67 | 238 | 7.0 | 10.0 | 0.00 | 0.00 | 0.03 | 71 | 1008.6 |
| 20260901110759 | 66 | 256 | 6.0 | 11.0 | 0.00 | 0.00 | 0.03 | 71 | 1008.6 |
| 20260901110254 | 65 | 270 | 6.0 | 9.0 | 0.00 | 0.00 | 0.03 | 72 | 1008.6 |
| 20260901105749 | 64 | 238 | 9.0 | 12.0 | 0.00 | 0.00 | 0.03 | 72 | 1008.6 |
| 20260901105244 | 64 | 265 | 6.0 | 6.0 | 0.00 | 0.00 | 0.03 | 72 | 1008.5 |
| 20260901104738 | 64 | 225 | 9.0 | 10.0 | 0.00 | 0.00 | 0.03 | 72 | 1008.3 |
| 20260901104233 | 63 | 270 | 7.0 | 11.0 | 0.00 | 0.00 | 0.03 | 72 | 1008.3 |
| 20260901103728 | 63 | 225 | 12.0 | 12.0 | 0.00 | 0.00 | 0.03 | 71 | 1008.3 |
| 20260901103223 | 63 | 270 | 6.0 | 12.0 | 0.00 | 0.00 | 0.03 | 71 | 1008.3 |
| 20260901102718 | 63 | 252 | 5.0 | 12.0 | 0.00 | 0.00 | 0.03 | 72 | 1008.3 |
| 20260901102212 | 63 | 270 | 1.0 | 10.0 | 0.00 | 0.00 | 0.03 | 71 | 1008.2 |
| 20260901101707 | 63 | 238 | 3.0 | 11.0 | 0.00 | 0.00 | 0.03 | 71 | 1008.2 |
| 20260901101202 | 64 | 265 | 8.0 | 13.0 | 0.00 | 0.00 | 0.03 | 70 | 1008.2 |
| 20260901100657 | 64 | 265 | 8.0 | 13.0 | 0.00 | 0.00 | 0.02 | 70 | 1008.1 |
| 20260901100152 | 65 | 270 | 9.0 | 13.0 | 0.00 | 0.00 | 0.01 | 69 | 1007.9 |
| 20260901095646 | 66 | 247 | 6.0 | 16.0 | 0.00 | 0.00 | 0.01 | 69 | 1007.9 |
| 20260901095141 | 67 | 261 | 10.0 | 13.0 | 0.00 | 0.00 | 0.01 | 70 | 1007.8 |
| 20260901094636 | 68 | 256 | 5.0 | 9.0 | 0.00 | 0.00 | 0.00 | 72 | 1007.7 |
| 20260901094131 | 67 | 333 | 5.0 | 9.0 | 0.00 | 0.00 | 0.00 | 72 | 1007.6 |
| 20260901093626 | 67 | 326 | 5.0 | 6.0 | 0.00 | 0.00 | 0.00 | 74 | 1007.6 |
| 20260901093120 | 66 | 333 | 4.0 | 5.0 | 0.00 | 0.00 | 0.00 | 74 | 1007.4 |
| 20260901092615 | 66 | 225 | 2.0 | 7.0 | 0.00 | 0.00 | 0.00 | 74 | 1007.4 |
| 20260901092110 | 67 | 238 | 2.0 | 6.0 | 0.00 | 0.00 | 0.00 | 76 | 1007.3 |
| 20260901091605 | 67 | 315 | 6.0 | 6.0 | 0.00 | 0.00 | 0.00 | 79 | 1007.2 |
| 20260901091100 | 66 | 13 | 1.0 | 7.0 | 0.00 | 0.00 | 0.00 | 80 | 1007.3 |
| 20260901090554 | 64 | 225 | 1.0 | 14.0 | 0.00 | 0.00 | 0.00 | 78 | 1007.3 |
| 20260901090049 | 64 | 229 | 8.0 | 10.0 | 0.00 | 0.00 | 0.00 | 81 | 1007.2 |
| 20260901085544 | 64 | 270 | 7.0 | 9.0 | 0.00 | 0.00 | 0.00 | 81 | 1007.2 |
| 20260901085039 | 64 | 225 | 9.0 | 11.0 | 0.00 | 0.00 | 0.00 | 83 | 1007.1 |
| 20260901084534 | 64 | 315 | 2.0 | 9.0 | 0.00 | 0.00 | 0.00 | 82 | 1007.2 |
| 20260901084028 | 64 | 315 | 3.0 | 7.0 | 0.00 | 0.00 | 0.00 | 84 | 1007.0 |
| 20260901083523 | 64 | 270 | 7.0 | 13.0 | 0.00 | 0.00 | 0.00 | 84 | 1007.1 |
| 20260901083018 | 65 | 252 | 9.0 | 13.0 | 0.00 | 0.00 | 0.00 | 88 | 1007.0 |
| 20260901082513 | 65 | 315 | 4.0 | 13.0 | 0.00 | 0.00 | 0.00 | 88 | 1007.0 |
| 20260901082008 | 65 | 270 | 9.0 | 13.0 | 0.00 | 0.00 | 0.00 | 91 | 1006.8 |
| 20260901081502 | 64 | 270 | 9.0 | 10.0 | 0.00 | 0.00 | 0.38 | 94 | 1006.8 |
| 20260901080957 | 63 | 234 | 8.0 | 8.0 | 0.00 | 0.00 | 0.38 | 93 | 1006.7 |
| 20260901080452 | 63 | 288 | 3.0 | 6.0 | 0.00 | 0.00 | 0.38 | 94 | 1006.7 |
| 20260901075947 | 63 | 225 | 2.0 | 10.0 | 0.00 | 0.00 | 0.38 | 94 | 1006.6 |
| 20260901075442 | 63 | 225 | 2.0 | 10.0 | 0.00 | 0.00 | 0.36 | 96 | 1006.5 |
| 20260901074936 | 62 | 333 | 6.0 | 9.0 | 0.00 | 0.00 | 0.35 | 97 | 1006.6 |
| 20260901074431 | 62 | 270 | 6.0 | 9.0 | 0.00 | 0.00 | 0.35 | 97 | 1006.4 |
| 20260901073926 | 62 | 139 | 2.0 | 7.0 | 0.00 | 0.00 | 0.35 | 98 | 1006.4 |
| 20260901073421 | 61 | 135 | 4.0 | 7.0 | 0.00 | 0.00 | 0.35 | 98 | 1006.3 |
| 20260901072916 | 61 | 126 | 0.0 | 9.0 | 0.00 | 0.00 | 0.35 | 99 | 1006.4 |
| 20260901072410 | 61 | 135 | 4.0 | 5.0 | 0.00 | 0.00 | 0.35 | 99 | 1006.4 |
| 20260901071905 | 60 | 94 | 2.0 | 5.0 | 0.00 | 0.00 | 0.35 | 99 | 1006.3 |
| 20260901071400 | 60 | 135 | 5.0 | 7.0 | 0.00 | 0.00 | 0.35 | 99 | 1006.2 |
| 20260901070855 | 60 | 135 | 2.0 | 7.0 | 0.00 | 0.00 | 0.34 | 99 | 1006.2 |
| 20260901070350 | 60 | 126 | 3.0 | 6.0 | 0.00 | 0.00 | 0.34 | 99 | 1006.2 |
| 20260901065844 | 60 | 135 | 5.0 | 7.0 | 0.00 | 0.00 | 0.34 | 99 | 1006.2 |
| 20260901065339 | 60 | 90 | 2.0 | 6.0 | 0.00 | 0.00 | 0.34 | 99 | 1006.2 |
| 20260901064834 | 59 | 135 | 2.0 | 8.0 | 0.00 | 0.00 | 0.34 | 99 | 1006.0 |
| 20260901064329 | 59 | 135 | 2.0 | 4.0 | 0.00 | 0.00 | 0.34 | 99 | 1006.0 |
| 20260901063824 | 59 | 135 | 1.0 | 3.0 | 0.00 | 0.00 | 0.34 | 99 | 1006.0 |
| 20260901063319 | 59 | 112 | 2.0 | 2.0 | 0.00 | 0.00 | 0.34 | 98 | 1006.0 |
| 20260901062813 | 59 | 135 | 2.0 | 5.0 | 0.00 | 0.00 | 0.34 | 99 | 1006.0 |
| 20260901062310 | 59 | 135 | 3.0 | 6.0 | 0.00 | 0.00 | 0.34 | 99 | 1005.9 |
| 20260901061803 | 59 | 126 | 2.0 | 4.0 | 0.00 | 0.00 | 0.34 | 99 | 1005.8 |
| 20260901061258 | 59 | 90 | 1.0 | 4.0 | 0.00 | 0.00 | 0.34 | 99 | 1005.9 |
| 20260901060247 | 58 | 90 | 2.0 | 2.0 | 0.00 | 0.00 | 0.34 | 99 | 1005.9 |
| 20260901055742 | 58 | 90 | 0.0 | 0.0 | 0.00 | 0.00 | 0.34 | 99 | 1005.7 |
| 20260901055237 | 58 | 90 | 0.0 | 0.0 | 0.00 | 0.00 | 0.34 | 99 | 1005.9 |
| 20260901054732 | 58 | 90 | 0.0 | 0.0 | 0.00 | 0.00 | 0.34 | 99 | 1005.7 |
| 20260901054226 | 58 | 90 | 0.0 | 0.0 | 0.00 | 0.00 | 0.34 | 99 | 1005.8 |
| 20260901053721 | 58 | 90 | 0.0 | 0.0 | 0.00 | 0.00 | 0.34 | 98 | 1005.7 |
| 20260901053216 | 57 | 90 | 0.0 | 0.0 | 0.00 | 0.00 | 0.34 | 98 | 1005.6 |
| 20260901052711 | 57 | 90 | 0.0 | 0.0 | 0.00 | 0.00 | 0.34 | 98 | 1005.6 |
| 20260901052206 | 57 | 90 | 1.0 | 1.0 | 0.00 | 0.00 | 0.34 | 99 | 1005.6 |
| 20260901051700 | 57 | 90 | 0.0 | 0.0 | 0.00 | 0.00 | 0.34 | 98 | 1005.5 |
| 20260901051155 | 57 | 85 | 0.0 | 0.0 | 0.00 | 0.00 | 0.34 | 99 | 1005.5 |
| 20260901050650 | 57 | 90 | 0.0 | 0.0 | 0.00 | 0.00 | 0.34 | 98 | 1005.4 |
| 20260901050145 | 56 | 90 | 0.0 | 0.0 | 0.00 | 0.00 | 0.34 | 98 | 1005.5 |
| 20260901045640 | 56 | 90 | 0.0 | 0.0 | 0.00 | 0.00 | 0.34 | 98 | 1005.5 |
| 20260901045134 | 56 | 90 | 0.0 | 0.0 | 0.00 | 0.00 | 0.34 | 98 | 1005.3 |
| 20260901044629 | 56 | 90 | 0.0 | 0.0 | 0.00 | 0.00 | 0.34 | 98 | 1005.3 |
| 20260901044124 | 56 | 90 | 0.0 | 0.0 | 0.00 | 0.00 | 0.34 | 98 | 1005.3 |
| 20260901043619 | 56 | 90 | 0.0 | 0.0 | 0.00 | 0.00 | 0.34 | 97 | 1005.2 |
| 20260901043114 | 56 | 85 | 0.0 | 0.0 | 0.00 | 0.00 | 0.34 | 97 | 1005.3 |
| 20260901042608 | 56 | 85 | 0.0 | 0.0 | 0.00 | 0.00 | 0.34 | 97 | 1005.1 |
| 20260901042103 | 56 | 90 | 0.0 | 0.0 | 0.00 | 0.00 | 0.34 | 98 | 1005.2 |
| 20260901041558 | 56 | 90 | 0.0 | 0.0 | 0.00 | 0.00 | 0.34 | 98 | 1005.1 |
| 20260901041053 | 56 | 90 | 0.0 | 0.0 | 0.00 | 0.00 | 0.34 | 97 | 1005.1 |
| 20260901040548 | 56 | 90 | 0.0 | 0.0 | 0.00 | 0.00 | 0.34 | 97 | 1005.1 |
| 20260901040043 | 56 | 90 | 0.0 | 1.0 | 0.00 | 0.00 | 0.34 | 97 | 1005.0 |
| 20260901035537 | 56 | 90 | 0.0 | 0.0 | 0.00 | 0.00 | 0.34 | 97 | 1005.0 |
| 20260901035032 | 56 | 90 | 0.0 | 0.0 | 0.00 | 0.00 | 0.34 | 97 | 1005.0 |
| 20260901034527 | 56 | 90 | 0.0 | 0.0 | 0.00 | 0.00 | 0.34 | 97 | 1005.0 |
| 20260901034022 | 56 | 90 | 0.0 | 0.0 | 0.00 | 0.00 | 0.34 | 97 | 1004.9 |
| 20260901033516 | 56 | 90 | 0.0 | 0.0 | 0.00 | 0.00 | 0.34 | 97 | 1004.8 |
| 20260901033011 | 56 | 90 | 0.0 | 0.0 | 0.00 | 0.00 | 0.34 | 96 | 1004.9 |
| 20260901032506 | 56 | 90 | 0.0 | 0.0 | 0.00 | 0.00 | 0.34 | 97 | 1004.8 |
| 20260901032001 | 56 | 90 | 0.0 | 0.0 | 0.00 | 0.00 | 0.34 | 97 | 1004.9 |
| 20260901031456 | 56 | 90 | 0.0 | 0.0 | 0.00 | 0.00 | 0.34 | 97 | 1004.9 |
| 20260901030950 | 57 | 90 | 0.0 | 0.0 | 0.00 | 0.00 | 0.34 | 98 | 1004.9 |
| 20260901030445 | 56 | 90 | 0.0 | 0.0 | 0.00 | 0.00 | 0.34 | 97 | 1004.8 |
| 20260901025940 | 57 | 90 | 0.0 | 0.0 | 0.00 | 0.00 | 0.34 | 97 | 1004.8 |
| 20260901024927 | 57 | 90 | 0.0 | 0.0 | 0.00 | 0.00 | 0.34 | 97 | 1004.7 |
| 20260901024422 | 57 | 90 | 0.0 | 0.0 | 0.00 | 0.00 | 0.34 | 97 | 1004.8 |
| 20260901023916 | 57 | 90 | 0.0 | 0.0 | 0.00 | 0.00 | 0.34 | 96 | 1004.7 |
| 20260901023411 | 57 | 85 | 0.0 | 1.0 | 0.00 | 0.00 | 0.34 | 97 | 1004.7 |
| 20260901022906 | 57 | 90 | 1.0 | 2.0 | 0.00 | 0.00 | 0.34 | 97 | 1004.6 |
| 20260901022401 | 57 | 90 | 1.0 | 1.0 | 0.00 | 0.00 | 0.34 | 97 | 1004.7 |
| 20260901021856 | 57 | 90 | 0.0 | 0.0 | 0.00 | 0.00 | 0.34 | 97 | 1004.5 |
| 20260901021350 | 57 | 90 | 0.0 | 0.0 | 0.00 | 0.00 | 0.34 | 97 | 1004.6 |
| 20260901020845 | 57 | 90 | 0.0 | 1.0 | 0.00 | 0.00 | 0.34 | 96 | 1004.5 |
| 20260901020340 | 57 | 85 | 0.0 | 0.0 | 0.00 | 0.00 | 0.34 | 96 | 1004.5 |
| 20260901015835 | 56 | 90 | 0.0 | 1.0 | 0.00 | 0.00 | 0.34 | 96 | 1004.5 |
| 20260901015330 | 56 | 85 | 0.0 | 2.0 | 0.00 | 0.00 | 0.34 | 97 | 1004.5 |
| 20260901014824 | 56 | 90 | 0.0 | 0.0 | 0.00 | 0.00 | 0.34 | 97 | 1004.4 |
| 20260901014319 | 56 | 90 | 0.0 | 1.0 | 0.00 | 0.00 | 0.33 | 96 | 1004.3 |
| 20260901013814 | 56 | 90 | 0.0 | 1.0 | 0.00 | 0.00 | 0.31 | 96 | 1004.3 |
| 20260901013309 | 56 | 90 | 2.0 | 2.0 | 0.00 | 0.00 | 0.31 | 96 | 1004.5 |
| 20260901012804 | 56 | 90 | 0.0 | 1.0 | 0.00 | 0.00 | 0.31 | 96 | 1004.3 |
| 20260901012258 | 56 | 90 | 0.0 | 0.0 | 0.00 | 0.00 | 0.31 | 96 | 1004.4 |
| 20260901011753 | 55 | 90 | 0.0 | 0.0 | 0.00 | 0.00 | 0.31 | 96 | 1004.3 |
| 20260901011248 | 55 | 85 | 0.0 | 0.0 | 0.00 | 0.00 | 0.31 | 95 | 1004.4 |
| 20260901010743 | 55 | 90 | 0.0 | 0.0 | 0.00 | 0.00 | 0.31 | 96 | 1004.4 |
| 20260901010238 | 55 | 85 | 0.0 | 1.0 | 0.00 | 0.00 | 0.31 | 95 | 1004.3 |
| 20260901005732 | 55 | 90 | 1.0 | 1.0 | 0.00 | 0.00 | 0.31 | 96 | 1004.3 |
| 20260901005227 | 55 | 90 | 1.0 | 2.0 | 0.00 | 0.00 | 0.31 | 96 | 1004.3 |
| 20260901004722 | 55 | 90 | 0.0 | 2.0 | 0.00 | 0.00 | 0.31 | 95 | 1004.2 |
| 20260901004217 | 55 | 85 | 0.0 | 0.0 | 0.00 | 0.00 | 0.31 | 95 | 1004.4 |
| 20260901003712 | 55 | 90 | 0.0 | 0.0 | 0.00 | 0.00 | 0.31 | 96 | 1004.2 |
| 20260901003206 | 55 | 90 | 0.0 | 0.0 | 0.00 | 0.00 | 0.31 | 95 | 1004.2 |
| 20260901002701 | 55 | 90 | 0.0 | 0.0 | 0.00 | 0.00 | 0.31 | 95 | 1004.2 |
| 20260901002156 | 55 | 90 | 0.0 | 0.0 | 0.00 | 0.00 | 0.31 | 95 | 1004.3 |
| 20260901001651 | 55 | 90 | 0.0 | 0.0 | 0.00 | 0.00 | 0.30 | 95 | 1004.3 |
| 20260901001146 | 55 | 90 | 0.0 | 0.0 | 0.00 | 0.00 | 0.30 | 95 | 1004.2 |
| 20260901000811 | 55 | 90 | 0.0 | 0.0 | 0.00 | 0.00 | 0.30 | 95 | 1004.2 |
| 20260901000809 | 55 | 180 | 0.0 | 0.0 | 0.00 | 0.00 | 0.30 | 94 | 1004.2 |
| 20260901000807 | 55 | 225 | 0.0 | 1.0 | 0.00 | 0.00 | 0.30 | 94 | 1004.1 |
| 20260901000804 | 55 | 90 | 0.0 | 0.0 | 0.00 | 0.00 | 0.30 | 94 | 1004.4 |
| 20260901000640 | 55 | 90 | 0.0 | 0.0 | 0.00 | 0.00 | 0.30 | 95 | 1004.2 |
| 20260901000135 | 55 | 90 | 0.0 | 0.0 | 0.00 | 0.00 | 0.30 | 95 | 1004.2 |
| 20260831235630 | 55 | 90 | 0.0 | 0.0 | 0.00 | 0.00 | 0.30 | 95 | 1004.2 |
| 20260831235125 | 55 | 90 | 0.0 | 0.0 | 0.00 | 0.00 | 0.30 | 95 | 1004.2 |
| 20260831234620 | 55 | 90 | 0.0 | 0.0 | 0.00 | 0.00 | 0.30 | 94 | 1004.2 |
| 20260831234114 | 55 | 90 | 0.0 | 0.0 | 0.00 | 0.00 | 0.30 | 94 | 1004.3 |
| 20260831233609 | 55 | 180 | 0.0 | 0.0 | 0.00 | 0.00 | 0.30 | 94 | 1004.2 |
| 20260831233104 | 55 | 180 | 0.0 | 0.0 | 0.00 | 0.00 | 0.30 | 94 | 1004.2 |
| 20260831232559 | 55 | 225 | 0.0 | 0.0 | 0.00 | 0.00 | 0.30 | 94 | 1004.1 |
| 20260831232054 | 55 | 225 | 0.0 | 1.0 | 0.00 | 0.00 | 0.30 | 94 | 1004.1 |
| 20260831231548 | 55 | 225 | 0.0 | 1.0 | 0.00 | 0.00 | 0.30 | 94 | 1004.1 |
| 20260831231043 | 55 | 225 | 0.0 | 0.0 | 0.00 | 0.00 | 0.30 | 94 | 1004.0 |
| 20260831230538 | 55 | 90 | 0.0 | 0.0 | 0.00 | 0.00 | 0.30 | 94 | 1004.3 |
| 20260831230033 | 55 | 90 | 0.0 | 0.0 | 0.00 | 0.00 | 0.30 | 94 | 1004.3 |
| 20260831225528 | 55 | 90 | 0.0 | 0.0 | 0.00 | 0.00 | 0.30 | 94 | 1004.4 |
| 20260831225022 | 55 | 90 | 0.0 | 0.0 | 0.00 | 0.00 | 0.30 | 94 | 1004.4 |
| 20260831224517 | 55 | 90 | 0.0 | 0.0 | 0.00 | 0.00 | 0.30 | 94 | 1004.4 |
| 20260831224012 | 55 | 90 | 0.0 | 0.0 | 0.00 | 0.00 | 0.30 | 94 | 1004.4 |
| 20260831223507 | 55 | 90 | 1.0 | 1.0 | 0.00 | 0.00 | 0.30 | 93 | 1004.5 |
| 20260831223002 | 55 | 90 | 0.0 | 0.0 | 0.00 | 0.00 | 0.30 | 94 | 1004.5 |
| 20260831222456 | 55 | 90 | 0.0 | 0.0 | 0.00 | 0.00 | 0.30 | 94 | 1004.4 |
| 20260831221951 | 55 | 58 | 0.0 | 0.0 | 0.00 | 0.00 | 0.30 | 93 | 1004.4 |
| 20260831221446 | 55 | 45 | 0.0 | 0.0 | 0.00 | 0.00 | 0.30 | 93 | 1004.4 |
| 20260831220941 | 55 | 45 | 0.0 | 0.0 | 0.00 | 0.00 | 0.30 | 93 | 1004.4 |
| 20260831220436 | 55 | 45 | 0.0 | 0.0 | 0.00 | 0.00 | 0.30 | 93 | 1004.5 |
| 20260831215931 | 56 | 45 | 0.0 | 0.0 | 0.00 | 0.00 | 0.30 | 93 | 1004.5 |
| 20260831215425 | 56 | 45 | 0.0 | 0.0 | 0.00 | 0.00 | 0.30 | 93 | 1004.3 |
| 20260831214920 | 56 | 45 | 0.0 | 0.0 | 0.00 | 0.00 | 0.30 | 93 | 1004.2 |
| 20260831214415 | 56 | 90 | 0.0 | 0.0 | 0.00 | 0.00 | 0.30 | 93 | 1004.2 |
| 20260831213910 | 56 | 85 | 0.0 | 1.0 | 0.00 | 0.00 | 0.30 | 92 | 1004.2 |
| 20260831213404 | 56 | 90 | 0.0 | 0.0 | 0.00 | 0.00 | 0.30 | 93 | 1004.3 |
| 20260831212859 | 57 | 90 | 0.0 | 1.0 | 0.00 | 0.00 | 0.30 | 93 | 1004.1 |
| 20260831212354 | 57 | 90 | 0.0 | 1.0 | 0.00 | 0.00 | 0.30 | 93 | 1004.1 |
| 20260831211849 | 57 | 90 | 1.0 | 1.0 | 0.00 | 0.00 | 0.30 | 93 | 1003.9 |
| 20260831211344 | 57 | 45 | 0.0 | 0.0 | 0.00 | 0.00 | 0.30 | 93 | 1004.0 |
| 20260831210839 | 57 | 45 | 0.0 | 1.0 | 0.00 | 0.00 | 0.30 | 93 | 1004.1 |
| 20260831210333 | 57 | 0 | 0.0 | 0.0 | 0.00 | 0.00 | 0.30 | 93 | 1004.0 |
| 20260831205828 | 57 | 0 | 0.0 | 0.0 | 0.00 | 0.00 | 0.30 | 93 | 1004.0 |
| 20260831205323 | 57 | 0 | 0.0 | 1.0 | 0.00 | 0.00 | 0.30 | 92 | 1004.1 |
| 20260831204818 | 57 | 135 | 0.0 | 0.0 | 0.00 | 0.00 | 0.30 | 92 | 1004.1 |
| 20260831204313 | 57 | 135 | 0.0 | 0.0 | 0.00 | 0.00 | 0.30 | 92 | 1004.1 |
| 20260831203807 | 57 | 135 | 0.0 | 1.0 | 0.00 | 0.00 | 0.30 | 92 | 1004.2 |
| 20260831203302 | 57 | 135 | 1.0 | 3.0 | 0.00 | 0.00 | 0.30 | 92 | 1004.1 |
| 20260831202757 | 57 | 135 | 0.0 | 0.0 | 0.00 | 0.00 | 0.30 | 92 | 1004.1 |
| 20260831202252 | 57 | 90 | 0.0 | 0.0 | 0.00 | 0.00 | 0.30 | 91 | 1004.2 |
| 20260831201747 | 57 | 270 | 0.0 | 2.0 | 0.00 | 0.00 | 0.30 | 91 | 1004.1 |
| 20260831201241 | 57 | 270 | 1.0 | 1.0 | 0.00 | 0.00 | 0.30 | 92 | 1004.1 |
| 20260831200736 | 57 | 135 | 0.0 | 4.0 | 0.00 | 0.00 | 0.30 | 91 | 1004.0 |
| 20260831200231 | 57 | 135 | 4.0 | 4.0 | 0.00 | 0.00 | 0.30 | 91 | 1004.1 |
| 20260831195726 | 57 | 108 | 2.0 | 5.0 | 0.00 | 0.00 | 0.30 | 92 | 1004.1 |
| 20260831195221 | 57 | 103 | 4.0 | 6.0 | 0.00 | 0.00 | 0.30 | 91 | 1004.1 |
| 20260831194715 | 57 | 90 | 3.0 | 5.0 | 0.00 | 0.00 | 0.30 | 91 | 1004.1 |
| 20260831194210 | 57 | 90 | 3.0 | 6.0 | 0.00 | 0.00 | 0.30 | 91 | 1004.1 |